Cumshewa Island, British Columbia

10:34 AM PST on December 07, 2016 (GMT -0800)
Cumshewa Island

Weather History for CWZL - January, 2014

Change the Weather History Date:

Friday, January 31, 2014

  Actual Average (CYZP) Record (CYZP)
Temperature  
Mean Temperature 38 °F -  
Max Temperature 41 °F 41 °F 50 °F (1998)
Min Temperature 34 °F 34 °F 26 °F (1999)
Degree Days  
Heating Degree Days 28    
Moisture  
Dew Point 30 °F    
Average Humidity 72    
Maximum Humidity 91    
Minimum Humidity 56    
Precipitation  
Precipitation 0.00 in - - ()
Sea Level Pressure  
Sea Level Pressure 30.12 in    
Wind  
Wind Speed 9 mph ()    
Max Wind Speed 13 mph    
Max Gust Speed -    
Averages and records for this station are not official NWS values.
T = Trace of Precipitation, MM = Missing Value Source: Averaged Metar Reports

Daily Weather History Graph

Daily Weather History Graph

Search for Another Location

Airport or City:

Trip Planner

Search our weather history database for the weather conditions in past years. The results will help you decide how hot, cold, wet, or windy it might be!

Date:

Astronomy

Jan. 31, 2014 Rise Set
Actual Time 8:31 AM PST 5:29 PM PST
Civil Twilight 7:53 AM PST 6:07 PM PST
Nautical Twilight 7:11 AM PST 6:48 PM PST
Astronomical Twilight 6:31 AM PST 7:29 PM PST
Moon 8:30 AM PST (1/31) 7:21 PM PST (1/31)
Length of Visible Light 10h 13m
Length of Day
8h 58m
New Moon, 1% of the Moon is Illuminated
Jan 31
New Moon
Feb 6
First Quarter
Feb 14
Full
Feb 22
Last Quarter
Mar 1
New

Hourly Weather History & Observations

Time (PST) Temp. Windchill Dew Point Humidity Pressure Visibility Wind Dir Wind Speed Gust Speed Precip Events Conditions
12:00 AM 37.0 °F 29.8 °F 29.5 °F 74% 30.06 in - WNW 10.4 mph - N/A   Unknown
1:00 AM 37.6 °F 30.5 °F 27.0 °F 66% 30.06 in - WNW 10.4 mph - N/A   Unknown
2:00 AM 36.7 °F 28.4 °F 29.3 °F 75% 30.07 in - WNW 12.7 mph - N/A   Unknown
3:00 AM 36.9 °F 29.1 °F 27.3 °F 68% 30.08 in - West 11.5 mph - N/A   Unknown
4:00 AM 37 °F - 29 °F 62% 30.08 in - WNW 11.5 mph - -  
4:00 AM 36.7 °F 28.9 °F 28.8 °F 73% 30.08 in - WNW 11.5 mph - N/A   Unknown
5:00 AM 36.5 °F 28.2 °F 26.1 °F 66% 30.08 in - WNW 12.7 mph - N/A   Unknown
6:00 AM 37.0 °F 29.8 °F 25.7 °F 64% 30.09 in - WNW 10.4 mph - N/A   Unknown
7:00 AM 34.9 °F 28.3 °F 25.3 °F 68% 30.10 in - West 8.1 mph - N/A   Unknown
8:00 AM 35.1 °F 27.9 °F 26.4 °F 71% 30.11 in - West 9.2 mph - N/A   Unknown
9:00 AM 36.3 °F 29.5 °F 26.6 °F 68% 30.12 in - West 9.2 mph - N/A   Unknown
10:00 AM 38 °F - 28 °F 56% 30.13 in - West 8.1 mph - -  
10:00 AM 38.1 °F 32.3 °F 27.9 °F 67% 30.13 in - West 8.1 mph - N/A   Unknown
11:00 AM 40.3 °F 35.5 °F 30.4 °F 68% 30.14 in - West 6.9 mph - N/A   Unknown
12:00 PM 41.0 °F 36.4 °F 31.8 °F 70% 30.14 in - West 6.9 mph - N/A   Unknown
1:00 PM 41.2 °F 35.5 °F 31.3 °F 68% 30.14 in - North 9.2 mph - N/A   Unknown
2:00 PM 40.6 °F 33.4 °F 31.3 °F 69% 30.13 in - North 12.7 mph - N/A   Unknown
3:00 PM 40.8 °F 33.7 °F 32.0 °F 71% 30.14 in - North 12.7 mph - N/A   Unknown
4:00 PM 41 °F - 33 °F 66% 30.14 in - North 9.2 mph - -  
4:00 PM 40.6 °F 34.8 °F 33.4 °F 75% 30.14 in - North 9.2 mph - N/A   Unknown
5:00 PM 40.6 °F 35.4 °F 34.0 °F 77% 30.14 in - North 8.1 mph - N/A   Unknown
6:00 PM 39.0 °F 35.7 °F 33.6 °F 81% 30.15 in - NNW 4.6 mph - N/A   Unknown
7:00 PM 39.2 °F 35.9 °F 33.6 °F 80% 30.15 in - WNW 4.6 mph - N/A   Unknown
8:00 PM 38.5 °F 34.1 °F 34.0 °F 84% 30.15 in - West 5.8 mph - N/A   Unknown
9:00 PM 37.9 °F 32.7 °F 34.7 °F 88% 30.15 in - West 6.9 mph - N/A   Unknown
10:00 PM 38 °F - 34 °F 80% 30.16 in - West 8.1 mph - -  
10:00 PM 36.5 °F 30.3 °F 34.0 °F 91% 30.16 in - West 8.1 mph - N/A   Unknown
11:00 PM 38.7 °F 34.3 °F 34.2 °F 84% 30.16 in - WNW 5.8 mph - N/A   Unknown